[[{"header":{"parameterUnit":"m.s-1","parameterCategory":1,"la1":30.2991,"la2":30.254,"lo1":-89.0895,"lo2":-89.0444,"dy":0.0017,"dx":0.0017,"nx":28,"ny":28,"refTime":"2024-10-21T03:00:00:Z","depth":0,"parameterNumber":2,"parameterNumberName":"U-component_of_WINDS"},"data":[0,0,0,0,0,0,0,0,0,0,0,0,0,0,0,0,0,0,0,0,0,0,0,0,0,0,0,0,0,0,0,0,0,0,0,0,0,0,0,0,0,0,0,0,0,0,0,0,0,0,0,0,0,0,0,0,0,0,-1.2724,-1.2726,0,-1.2914,-1.2917,-1.2919,-1.2961,-1.296,-1.2959,-1.2958,-1.3155,-1.3161,-1.3168,0,0,0,0,0,0,0,0,0,0,0,0,0,-1.2401,-1.2407,-1.2724,-1.2727,-1.2729,-1.2914,-1.2917,-1.2919,-1.2962,-1.296,-1.2958,-1.2957,-1.3153,-1.316,-1.3168,0,0,0,0,0,0,0,0,0,0,0,0,0,-1.2561,-1.2409,-1.2724,-1.2772,-1.2779,-1.2914,-1.2917,-1.292,-1.2962,-1.296,-1.2958,-1.2956,-1.315,-1.316,-1.3169,-1.327,0,0,-1.3199,-1.3203,0,0,0,0,0,0,0,0,-1.2552,-1.2573,-1.2763,-1.2769,-1.2776,-1.2912,-1.2875,-1.3037,-1.2963,-1.2892,-1.2957,-1.2955,-1.3076,-1.3092,-1.3132,-1.3279,-1.3288,-1.32,-1.3206,-1.321,-1.3213,0,0,0,0,0,0,0,-1.2541,-1.2565,-1.28,-1.2766,-1.2774,-1.2786,-1.2806,-1.2906,-1.2993,-1.2898,-1.2902,-1.2924,-1.3079,-1.3122,-1.3137,-1.3291,-1.32,-1.3208,-1.3214,-1.3218,-1.3534,-1.3536,0,0,0,0,0,0,-1.2521,-1.2556,-1.2794,-1.2805,-1.2657,-1.2793,-1.2816,-1.2871,-1.2992,-1.3009,-1.2925,-1.2925,-1.3107,-1.3125,-1.3144,-1.3273,-1.321,-1.3219,-1.3225,-1.3531,-1.3534,-1.3537,0,0,0,0,0,0,-1.2514,-1.2542,-1.2786,-1.2682,-1.2714,-1.2801,-1.2862,-1.2875,-1.2919,-1.3013,-1.3029,-1.2953,-1.3106,-1.313,-1.3239,-1.328,-1.3223,-1.3232,-1.3528,-1.3532,-1.3536,-1.3529,0,0,0,0,0,0,-1.2505,-1.2539,-1.2577,-1.2682,-1.2719,-1.2877,-1.2864,-1.2881,-1.2935,-1.2937,-1.3043,-1.3059,-1.3106,-1.3224,-1.3249,-1.3292,-1.324,-1.3525,-1.353,-1.3535,-1.3526,-1.3532,-1.3537,0,0,0,0,0,-1.2493,-1.2568,-1.2579,-1.2608,-1.2769,-1.2879,-1.29,-1.2952,-1.2938,-1.2978,-1.3039,-1.3055,-1.3271,-1.3235,-1.3263,-1.331,-1.3523,-1.3529,-1.3534,-1.3524,-1.3531,-1.3537,0,0,0,0,0,0,-1.2466,-1.2582,-1.2596,-1.2707,-1.2783,-1.2886,-1.2938,-1.2958,-1.304,-1.3038,-1.31,-1.3124,-1.3229,-1.328,-1.3238,-1.3416,-1.3397,-1.3408,-1.3379,-1.3387,-1.3392,-1.3379,-1.3248,0,0,0,0,0,-1.2473,-1.2552,-1.2649,-1.2738,-1.2775,-1.285,-1.29,-1.2934,-1.3015,-1.3047,-1.3116,-1.3195,-1.3281,-1.3336,-1.342,-1.3533,-1.3558,-1.3579,-1.3585,-1.3589,-1.3599,-1.3666,-1.3677,-1.3556,-1.3556,-1.3556,0,0,-1.2488,-1.2561,-1.2608,-1.2734,-1.2797,-1.2879,-1.2877,-1.2963,-1.3025,-1.3061,-1.3168,-1.3221,-1.3314,-1.3426,-1.3479,-1.3472,-1.3638,-1.3596,-1.3599,-1.3607,-1.3673,-1.3684,-1.3694,-1.356,-1.3559,-1.3558,0,0,-1.2558,-1.262,-1.2702,-1.2765,-1.286,-1.291,-1.2929,-1.303,-1.3067,-1.3175,-1.3205,-1.328,-1.3425,-1.3491,-1.3543,-1.364,-1.3659,-1.3665,-1.3696,-1.376,-1.377,-1.3779,-1.3816,-1.3828,-1.3675,-1.3675,-1.3675,0,-1.2566,-1.269,-1.2742,-1.2828,-1.2884,-1.2919,-1.3004,-1.3063,-1.318,-1.3219,-1.3209,-1.3395,-1.3459,-1.3588,-1.3612,-1.3652,-1.3679,-1.3655,-1.3764,-1.3773,-1.3782,-1.3819,-1.3832,-1.3675,-1.3675,-1.3675,-1.3675,0,-1.2695,-1.2781,-1.2836,-1.2949,-1.3011,-1.3095,-1.3162,-1.3219,-1.3247,-1.3298,-1.341,-1.3488,-1.359,-1.3623,-1.3651,-1.3757,-1.375,-1.3751,-1.3734,-1.3793,-1.3829,-1.3843,-1.3676,-1.3675,-1.3675,-1.3675,0,0,-1.2755,-1.2896,-1.2916,-1.2969,-1.3076,-1.3144,-1.3231,-1.333,-1.3379,-1.3459,-1.3535,-1.3658,-1.3661,-1.372,-1.3756,-1.3812,-1.3887,-1.3807,-1.381,-1.3821,-1.4012,-1.4013,-1.4028,-1.3899,-1.3902,-1.3905,-1.4005,0,-1.2841,-1.2997,-1.3047,-1.3178,-1.3259,-1.3294,-1.3371,-1.3446,-1.3496,-1.3573,-1.3629,-1.3716,-1.3711,-1.3747,-1.3804,-1.3866,-1.3927,-1.3859,-1.3974,-1.3977,-1.3952,-1.4046,-1.4046,-1.4138,-1.4019,-1.4022,-1.4023,0,-1.2962,-1.3044,-1.3182,-1.3282,-1.3318,-1.3385,-1.3482,-1.3554,-1.3641,-1.3674,-1.3741,-1.3773,-1.3867,-1.3842,-1.3975,-1.3927,-1.3977,-1.4015,-1.402,-1.4035,-1.4005,-1.4066,-1.4168,-1.4183,-1.4045,-1.4043,-1.4042,0,-1.2995,-1.314,-1.3243,-1.3286,-1.3404,-1.3451,-1.3503,-1.3587,-1.3644,-1.3728,-1.3767,-1.386,-1.3913,-1.3986,-1.4043,-1.4019,-1.4171,-1.4151,-1.4204,-1.4202,-1.4236,-1.4234,-1.435,-1.4263,-1.4263,-1.4263,-1.4262,0,-1.3087,-1.3171,-1.3259,-1.3323,-1.3419,-1.3476,-1.357,-1.3624,-1.3699,-1.3775,-1.381,-1.3881,-1.3951,-1.4032,-1.4077,-1.4182,-1.4204,-1.4235,-1.4247,-1.4233,-1.423,-1.4269,-1.4265,-1.4266,-1.4266,-1.4265,-1.4264,0,-1.3141,-1.3203,-1.3318,-1.342,-1.3448,-1.3514,-1.3603,-1.3667,-1.3718,-1.3814,-1.3839,-1.3921,-1.4017,-1.4081,-1.4204,-1.4235,-1.435,-1.4358,-1.4321,-1.4327,-1.4377,-1.4373,-1.4525,-1.4549,-1.4443,-1.4444,-1.4445,0,-1.3197,-1.3263,-1.3372,-1.3425,-1.3477,-1.3562,-1.362,-1.368,-1.374,-1.3844,-1.3896,-1.3995,-1.4077,-1.423,-1.4302,-1.4397,-1.441,-1.4457,-1.4425,-1.441,-1.4414,-1.4411,-1.4419,-1.4463,-1.4463,-1.4464,-1.4465,0,-1.3291,-1.3318,-1.3401,-1.3495,-1.3564,-1.3642,-1.3719,-1.376,-1.3834,-1.3899,-1.3999,-1.4062,-1.4189,-1.4288,-1.439,-1.4444,-1.4468,-1.4474,-1.4492,-1.448,-1.4457,-1.4473,-1.4338,-1.4471,-1.447,-1.447,-1.4469,-1.4469,-1.335,-1.3411,-1.3498,-1.359,-1.3654,-1.3726,-1.3792,-1.3851,-1.3935,-1.4042,-1.4072,-1.4176,-1.4263,-1.4403,-1.4459,-1.4543,-1.4538,-1.4563,-1.457,-1.4576,-1.4578,-1.4441,-1.4561,-1.4561,-1.4561,-1.4561,-1.4561,0,-1.3448,-1.3506,-1.3589,-1.3697,-1.3769,-1.3783,-1.387,-1.3931,-1.4022,-1.41,-1.4181,-1.4296,-1.4393,-1.4471,-1.4571,-1.4623,-1.4636,-1.4647,-1.4646,-1.4659,-1.4575,-1.4551,-1.4635,-1.4635,-1.4635,-1.4635,-1.4635,-1.4635,-1.3508,-1.3613,-1.3651,-1.3789,-1.3847,-1.3949,-1.3998,-1.4065,-1.4128,-1.4255,-1.4335,-1.4385,-1.4465,-1.4571,-1.4661,-1.4682,-1.4718,-1.4728,-1.4751,-1.4672,-1.4664,-1.4656,-1.4634,-1.4734,-1.4734,-1.4828,-1.4829,-1.483]},{"header":{"parameterUnit":"m.s-1","parameterCategory":1,"la1":30.2991,"la2":30.254,"lo1":-89.0895,"lo2":-89.0444,"dy":0.0017,"dx":0.0017,"nx":28,"ny":28,"refTime":"2024-10-21T03:00:00:Z","depth":0,"parameterNumber":3,"parameterNumberName":"V-component_of_WINDS"},"data":[0,0,0,0,0,0,0,0,0,0,0,0,0,0,0,0,0,0,0,0,0,0,0,0,0,0,0,0,0,0,0,0,0,0,0,0,0,0,0,0,0,0,0,0,0,0,0,0,0,0,0,0,0,0,0,0,0,0,-2.1741,-2.1741,0,-2.1736,-2.1736,-2.1736,-2.1693,-2.1691,-2.169,-2.1689,-2.1684,-2.1685,-2.1686,0,0,0,0,0,0,0,0,0,0,0,0,0,-2.1715,-2.1716,-2.1741,-2.1741,-2.1741,-2.1736,-2.1736,-2.1736,-2.1693,-2.1691,-2.169,-2.1689,-2.1684,-2.1685,-2.1686,0,0,0,0,0,0,0,0,0,0,0,0,0,-2.172,-2.1716,-2.1741,-2.1719,-2.1717,-2.1736,-2.1736,-2.1736,-2.1693,-2.1691,-2.169,-2.1688,-2.1683,-2.1685,-2.1686,-2.1726,0,0,-2.169,-2.169,0,0,0,0,0,0,0,0,-2.172,-2.1721,-2.1723,-2.1721,-2.1719,-2.1713,-2.1724,-2.1732,-2.1693,-2.1702,-2.1689,-2.1688,-2.1695,-2.1695,-2.1698,-2.1725,-2.1725,-2.169,-2.1691,-2.1691,-2.1691,0,0,0,0,0,0,0,-2.1719,-2.1721,-2.1739,-2.1723,-2.172,-2.1709,-2.1708,-2.1726,-2.1708,-2.1701,-2.1698,-2.1698,-2.1694,-2.1697,-2.1697,-2.1725,-2.169,-2.1691,-2.1692,-2.1692,-2.1785,-2.1786,0,0,0,0,0,0,-2.1722,-2.1721,-2.1739,-2.1739,-2.1715,-2.1711,-2.171,-2.1717,-2.1707,-2.1704,-2.1699,-2.1696,-2.1695,-2.1696,-2.1697,-2.1743,-2.1691,-2.1692,-2.1693,-2.1783,-2.1785,-2.1787,0,0,0,0,0,0,-2.1722,-2.1724,-2.174,-2.1729,-2.173,-2.1713,-2.1721,-2.1717,-2.172,-2.1706,-2.1702,-2.1706,-2.1694,-2.1695,-2.1719,-2.1742,-2.1693,-2.1694,-2.1781,-2.1784,-2.1786,-2.1835,0,0,0,0,0,0,-2.1721,-2.1724,-2.1739,-2.173,-2.1731,-2.1762,-2.1722,-2.1718,-2.1722,-2.1718,-2.1711,-2.1708,-2.1693,-2.1717,-2.172,-2.1743,-2.1695,-2.1779,-2.1782,-2.1785,-2.1831,-2.1839,-2.1845,0,0,0,0,0,-2.172,-2.1753,-2.174,-2.1743,-2.1749,-2.1763,-2.1764,-2.1745,-2.1724,-2.1739,-2.173,-2.1708,-2.1739,-2.172,-2.1723,-2.1746,-2.1777,-2.1781,-2.1785,-2.1828,-2.1837,-2.1845,0,0,0,0,0,0,-2.1766,-2.1752,-2.1737,-2.1768,-2.1767,-2.1756,-2.1774,-2.1756,-2.1761,-2.1757,-2.1733,-2.1732,-2.1759,-2.1755,-2.1734,-2.1784,-2.1754,-2.1759,-2.1786,-2.1795,-2.1802,-2.1802,-2.1696,0,0,0,0,0,-2.178,-2.1792,-2.1779,-2.1807,-2.1808,-2.1791,-2.1796,-2.1782,-2.178,-2.178,-2.1772,-2.1772,-2.1781,-2.1787,-2.1795,-2.183,-2.1828,-2.1848,-2.1855,-2.1861,-2.1865,-2.1883,-2.1892,-2.1799,-2.1799,-2.1799,0,0,-2.1808,-2.1802,-2.1811,-2.1816,-2.1814,-2.1827,-2.1791,-2.1807,-2.1816,-2.1782,-2.1804,-2.1799,-2.1796,-2.1826,-2.1838,-2.1823,-2.189,-2.1866,-2.187,-2.1871,-2.1888,-2.1897,-2.1904,-2.1802,-2.1802,-2.1801,0,0,-2.1867,-2.1863,-2.1887,-2.1885,-2.1882,-2.187,-2.1876,-2.1868,-2.1863,-2.1884,-2.1859,-2.187,-2.1886,-2.1886,-2.1887,-2.1945,-2.1926,-2.1949,-2.1986,-2.2004,-2.2011,-2.2017,-2.2038,-2.2046,-2.1953,-2.1953,-2.1953,0,-2.1903,-2.1922,-2.1901,-2.1918,-2.1921,-2.1891,-2.1914,-2.1913,-2.1913,-2.1916,-2.1899,-2.1919,-2.1915,-2.1944,-2.1958,-2.1961,-2.1966,-2.1949,-2.2012,-2.2018,-2.2023,-2.2043,-2.2051,-2.1956,-2.1956,-2.1955,-2.1955,0,-2.1966,-2.1979,-2.1999,-2.1999,-2.2004,-2.2024,-2.2007,-2.2014,-2.2,-2.199,-2.2012,-2.2007,-2.2013,-2.2018,-2.2004,-2.2045,-2.2036,-2.2016,-2.1985,-2.2035,-2.2053,-2.2061,-2.196,-2.1959,-2.1958,-2.1957,0,0,-2.2054,-2.2042,-2.2049,-2.2049,-2.2043,-2.2053,-2.2072,-2.2078,-2.2085,-2.2085,-2.2101,-2.2115,-2.2096,-2.2098,-2.2084,-2.21,-2.2146,-2.2077,-2.2077,-2.209,-2.2191,-2.2206,-2.2215,-2.2133,-2.2134,-2.2135,-2.2191,0,-2.211,-2.2141,-2.2123,-2.2157,-2.2169,-2.214,-2.2157,-2.2155,-2.2147,-2.2156,-2.2146,-2.2157,-2.2131,-2.2132,-2.2147,-2.2137,-2.2166,-2.2133,-2.2147,-2.2148,-2.2149,-2.2225,-2.2241,-2.2294,-2.2198,-2.2199,-2.22,0,-2.218,-2.2184,-2.2219,-2.221,-2.2215,-2.223,-2.2234,-2.2243,-2.224,-2.2233,-2.2235,-2.2217,-2.2234,-2.2204,-2.2229,-2.2207,-2.2212,-2.2208,-2.2209,-2.221,-2.2177,-2.2228,-2.2311,-2.2319,-2.2211,-2.221,-2.2209,0,-2.2241,-2.2254,-2.2277,-2.2278,-2.2268,-2.2279,-2.2276,-2.2272,-2.2276,-2.228,-2.2282,-2.2288,-2.2291,-2.2295,-2.2279,-2.2259,-2.2306,-2.2274,-2.23,-2.2301,-2.2312,-2.2311,-2.2397,-2.2315,-2.2314,-2.2314,-2.2314,0,-2.2306,-2.2329,-2.2304,-2.2318,-2.2343,-2.2321,-2.2346,-2.234,-2.2336,-2.2349,-2.2324,-2.2336,-2.2313,-2.2323,-2.2311,-2.2333,-2.2334,-2.2329,-2.2325,-2.2331,-2.2332,-2.2334,-2.233,-2.2316,-2.2316,-2.2315,-2.2315,0,-2.2378,-2.2362,-2.2385,-2.2374,-2.2372,-2.2391,-2.2381,-2.2394,-2.2384,-2.24,-2.2402,-2.2386,-2.2396,-2.238,-2.2389,-2.238,-2.2411,-2.2402,-2.2412,-2.2409,-2.2437,-2.2434,-2.2527,-2.2538,-2.2448,-2.2449,-2.245,0,-2.242,-2.2437,-2.2428,-2.2434,-2.2432,-2.2443,-2.2447,-2.2427,-2.2432,-2.243,-2.2443,-2.2452,-2.2457,-2.2475,-2.2464,-2.2471,-2.2461,-2.2493,-2.2462,-2.2468,-2.2462,-2.2461,-2.2463,-2.25,-2.2501,-2.2502,-2.2502,0,-2.2498,-2.2489,-2.2496,-2.2501,-2.2507,-2.2509,-2.251,-2.2517,-2.2495,-2.2503,-2.2513,-2.2517,-2.2526,-2.2534,-2.2538,-2.2535,-2.2515,-2.2512,-2.2519,-2.2525,-2.253,-2.2528,-2.243,-2.251,-2.251,-2.2509,-2.2509,-2.2508,-2.2556,-2.257,-2.2565,-2.2574,-2.2572,-2.2574,-2.2585,-2.2576,-2.2584,-2.2589,-2.2577,-2.259,-2.2587,-2.2589,-2.2588,-2.2598,-2.2584,-2.2594,-2.2596,-2.2599,-2.2603,-2.2529,-2.2599,-2.2599,-2.2598,-2.2598,-2.2598,0,-2.2633,-2.2628,-2.2636,-2.2638,-2.2645,-2.2626,-2.2625,-2.2633,-2.2644,-2.2643,-2.2649,-2.266,-2.2668,-2.2658,-2.2664,-2.2675,-2.2666,-2.2677,-2.2676,-2.2676,-2.2615,-2.2609,-2.2684,-2.2684,-2.2684,-2.2684,-2.2684,-2.2684,-2.2673,-2.2695,-2.2686,-2.2706,-2.2702,-2.2714,-2.2716,-2.2717,-2.2715,-2.273,-2.2736,-2.2729,-2.2724,-2.273,-2.2736,-2.2733,-2.2737,-2.2751,-2.2745,-2.2688,-2.268,-2.2672,-2.2666,-2.2752,-2.2752,-2.2805,-2.2805,-2.2806]}]]